Weather History for Cherokee, IA

Change the Weather History Date:

Wednesday, November 21, 2012

  Actual Average Record
Temperature  
Mean Temperature 58 °F -  
Max Temperature 73 °F 40 °F 73 °F (2012)
Min Temperature 44 °F 20 °F -5 °F (1964)
Degree Days  
Heating Degree Days 6    
Growing Degree Days 8 (Base 50)    
Moisture  
Dew Point 33 °F    
Average Humidity 42    
Maximum Humidity 64    
Minimum Humidity 19    
Precipitation  
Precipitation 0.00 in - - ()
Sea Level Pressure  
Sea Level Pressure 29.92 in    
Wind  
Wind Speed 11 mph (SSW)    
Max Wind Speed 26 mph    
Max Gust Speed 33 mph    
Visibility 10 miles    
Events      
Averages and records for this station are not official NWS values.
T = Trace of Precipitation, MM = Missing Value Source: NWS Daily Summary

Daily Weather History Graph

Daily Weather History Graph

Search for Another Location

Airport:

Trip Planner

Search our weather history database for the weather conditions in past years. The results will help you decide how hot, cold, wet, or windy it might be!

Date:

Astronomy

Nov. 21, 2012 Rise Set
Actual Time 7:22 AM CST 4:54 PM CST
Civil Twilight 6:51 AM CST 5:25 PM CST
Nautical Twilight 6:16 AM CST 5:59 PM CST
Astronomical Twilight 5:42 AM CST 6:33 PM CST
Moon 1:18 PM CST (11/21) 12:33 AM CST (11/21)
Length of Visible Light 10h 33m
Length of Day
9h 32m
First Quarter, 62% of the Moon is Illuminated
Nov 21
First Quarter
Nov 28
Full
Dec 6
Last Quarter
Dec 13
New
Dec 19
First Quarter

Hourly Weather History & Observations

Time (CST) Temp. Windchill Dew Point Humidity Pressure Visibility Wind Dir Wind Speed Gust Speed Precip Events Conditions
12:15 AM 48.7 °F - 31.1 °F 51% 30.06 in 10.0 mi South 9.2 mph - N/A   Clear
12:35 AM 47.7 °F - 31.1 °F 53% 30.05 in 10.0 mi South 8.1 mph - N/A   Clear
12:55 AM 47.3 °F - 31.5 °F 54% 30.05 in 10.0 mi South 8.1 mph - N/A   Clear
1:15 AM 46.0 °F 41.9 °F 31.8 °F 58% 30.05 in 10.0 mi South 8.1 mph - N/A   Clear
1:35 AM 46.6 °F - 32.0 °F 57% 30.05 in 10.0 mi South 8.1 mph - N/A   Clear
1:55 AM 44.8 °F 41.6 °F 32.0 °F 61% 30.05 in 10.0 mi South 5.8 mph - N/A   Clear
2:15 AM 46.2 °F 43.3 °F 32.2 °F 58% 30.04 in 10.0 mi South 5.8 mph - N/A   Clear
2:35 AM 46.0 °F 43.1 °F 32.0 °F 58% 30.05 in 10.0 mi South 5.8 mph - N/A   Clear
2:55 AM 46.6 °F - 32.0 °F 57% 30.04 in 10.0 mi South 3.5 mph - N/A   Clear
3:15 AM 45.9 °F 42.3 °F 32.4 °F 59% 30.04 in 10.0 mi South 6.9 mph - N/A   Clear
3:35 AM 45.9 °F 42.9 °F 32.2 °F 59% 30.03 in 10.0 mi South 5.8 mph - N/A   Clear
3:55 AM 46.8 °F - 32.0 °F 57% 30.03 in 10.0 mi South 4.6 mph - N/A   Clear
4:15 AM 46.6 °F - 32.0 °F 57% 30.03 in 10.0 mi South 9.2 mph - N/A   Clear
4:35 AM 47.5 °F - 32.0 °F 55% 30.03 in 10.0 mi South 9.2 mph - N/A   Clear
4:55 AM 46.6 °F - 32.2 °F 57% 30.02 in 10.0 mi South 9.2 mph - N/A   Clear
5:15 AM 46.4 °F 42.9 °F 32.2 °F 58% 30.02 in 10.0 mi South 6.9 mph - N/A   Clear
5:35 AM 44.4 °F 40.0 °F 32.9 °F 64% 30.01 in 10.0 mi South 8.1 mph - N/A   Clear
5:55 AM 45.0 °F 41.8 °F 32.9 °F 63% 30.01 in 10.0 mi South 5.8 mph - N/A   Clear
6:15 AM 44.4 °F - 32.9 °F 64% 30.01 in 10.0 mi Calm Calm - N/A   Clear
6:35 AM 46.4 °F 43.5 °F 33.4 °F 61% 30.01 in 10.0 mi South 5.8 mph - N/A   Clear
6:55 AM 45.5 °F 42.5 °F 33.4 °F 63% 30.01 in 10.0 mi SSW 5.8 mph - N/A   Clear
7:15 AM 46.0 °F 42.5 °F 33.8 °F 62% 30.01 in 10.0 mi South 6.9 mph - N/A   Clear
7:35 AM 46.8 °F - 34.3 °F 62% 30.00 in 10.0 mi South 9.2 mph - N/A   Clear
7:55 AM 48.2 °F - 34.7 °F 60% 30.00 in 10.0 mi South 9.2 mph - N/A   Clear
8:15 AM 50.2 °F - 35.4 °F 57% 30.00 in 10.0 mi SSW 12.7 mph - N/A   Clear
8:35 AM 53.1 °F - 34.9 °F 50% 30.00 in 10.0 mi SSW 16.1 mph - N/A   Clear
8:55 AM 54.9 °F - 34.3 °F 46% 30.00 in 10.0 mi SSW 15.0 mph - N/A   Clear
9:15 AM 56.3 °F - 34.0 °F 43% 30.00 in 10.0 mi SSW 16.1 mph 20.7 mph N/A   Clear
9:35 AM 57.4 °F - 34.0 °F 41% 30.00 in 10.0 mi SSW 16.1 mph 21.9 mph N/A   Clear
9:55 AM 58.8 °F - 33.6 °F 39% 30.00 in 10.0 mi SSW 19.6 mph 23.0 mph N/A   Clear
10:15 AM 60.1 °F - 33.3 °F 36% 29.99 in 10.0 mi SSW 18.4 mph - N/A   Clear
10:35 AM 61.7 °F - 32.4 °F 33% 29.99 in 10.0 mi SSW 16.1 mph 21.9 mph N/A   Clear
10:55 AM 63.3 °F - 31.8 °F 31% 29.98 in 10.0 mi SSW 15.0 mph - N/A   Clear
11:15 AM 65.1 °F - 30.7 °F 28% 29.97 in 10.0 mi SSW 15.0 mph 21.9 mph N/A   Clear
11:35 AM 66.6 °F - 30.6 °F 26% 29.96 in 10.0 mi SSW 17.3 mph 24.2 mph N/A   Clear
11:55 AM 67.8 °F - 31.6 °F 26% 29.95 in 10.0 mi SSW 16.1 mph 26.5 mph N/A   Clear
12:15 PM 67.1 °F - 32.0 °F 27% 29.94 in 10.0 mi SSW 21.9 mph 29.9 mph N/A   Clear
12:35 PM 68.0 °F - 31.8 °F 26% 29.92 in 10.0 mi SSW 20.7 mph 29.9 mph N/A   Clear
12:55 PM 68.5 °F - 31.5 °F 25% 29.92 in 10.0 mi SSW 20.7 mph 28.8 mph N/A   Clear
1:15 PM 69.8 °F - 31.1 °F 24% 29.91 in 10.0 mi SSW 26.5 mph 33.4 mph N/A   Clear
1:35 PM 70.2 °F - 30.7 °F 23% 29.89 in 10.0 mi SSW 21.9 mph 32.2 mph N/A   Clear
1:55 PM 72.1 °F - 29.1 °F 20% 29.88 in 10.0 mi SSW 20.7 mph 28.8 mph N/A   Clear
2:15 PM 71.4 °F - 30.2 °F 22% 29.87 in 10.0 mi SSW 20.7 mph 26.5 mph N/A   Clear
2:35 PM 72.5 °F - 29.7 °F 21% 29.86 in 10.0 mi SSW 21.9 mph 28.8 mph N/A   Clear
2:55 PM 73.6 °F - 28.2 °F 19% 29.85 in 10.0 mi SSW 20.7 mph 31.1 mph N/A   Clear
3:15 PM 72.5 °F - 28.9 °F 20% 29.84 in 10.0 mi South 18.4 mph 29.9 mph N/A   Clear
3:35 PM 72.0 °F - 29.3 °F 21% 29.84 in 10.0 mi SSW 19.6 mph 24.2 mph N/A   Clear
3:55 PM 71.6 °F - 29.8 °F 21% 29.83 in 10.0 mi SSW 15.0 mph - N/A   Clear
4:15 PM 70.7 °F - 30.2 °F 22% 29.83 in 10.0 mi South 18.4 mph 27.6 mph N/A   Clear
4:35 PM 69.1 °F - 31.5 °F 25% 29.82 in 10.0 mi South 13.8 mph 21.9 mph N/A   Clear
4:55 PM 68.0 °F - 31.1 °F 25% 29.83 in 10.0 mi SSW 15.0 mph 21.9 mph N/A   Clear
5:15 PM 66.0 °F - 31.8 °F 28% 29.83 in 10.0 mi SSW 12.7 mph - N/A   Clear
5:35 PM 63.9 °F - 33.1 °F 32% 29.83 in 10.0 mi South 10.4 mph 18.4 mph N/A   Clear
5:55 PM 63.9 °F - 33.3 °F 32% 29.83 in 10.0 mi South 12.7 mph - N/A   Clear
6:15 PM 63.9 °F - 34.0 °F 33% 29.82 in 10.0 mi South 12.7 mph - N/A   Clear
6:35 PM 61.9 °F - 35.6 °F 38% 29.82 in 10.0 mi South 11.5 mph - N/A   Clear
6:55 PM 61.9 °F - 35.6 °F 38% 29.81 in 10.0 mi South 15.0 mph - N/A   Clear
7:15 PM 63.5 °F - 34.7 °F 34% 29.81 in 10.0 mi South 15.0 mph - N/A   Clear
7:35 PM 62.8 °F - 34.9 °F 35% 29.81 in 10.0 mi South 16.1 mph - N/A   Clear
7:55 PM 61.9 °F - 35.2 °F 37% 29.80 in 10.0 mi South 15.0 mph - N/A   Clear
8:15 PM 60.8 °F - 36.0 °F 40% 29.80 in 10.0 mi South 12.7 mph 18.4 mph N/A   Clear
8:35 PM 59.9 °F - 36.5 °F 42% 29.79 in 10.0 mi South 11.5 mph - N/A   Clear
8:55 PM 61.2 °F - 36.9 °F 40% 29.78 in 10.0 mi South 13.8 mph - N/A   Clear
9:15 PM 61.9 °F - 37.2 °F 40% 29.78 in 10.0 mi South 17.3 mph 23.0 mph N/A   Clear
9:35 PM 62.6 °F - 37.9 °F 40% 29.78 in 10.0 mi South 15.0 mph - N/A   Clear
9:55 PM 62.2 °F - 38.7 °F 42% 29.77 in 10.0 mi SSW 16.1 mph 24.2 mph N/A   Clear
10:15 PM 61.7 °F - 39.2 °F 43% 29.77 in 10.0 mi South 16.1 mph 23.0 mph N/A   Clear
10:35 PM 61.2 °F - 39.7 °F 45% 29.76 in 10.0 mi South 15.0 mph - N/A   Clear
10:55 PM 60.1 °F - 40.3 °F 48% 29.76 in 10.0 mi South 15.0 mph - N/A   Clear
11:15 PM 60.3 °F - 40.5 °F 48% 29.75 in 10.0 mi South 12.7 mph - N/A   Clear
11:35 PM 59.9 °F - 40.5 °F 49% 29.75 in 10.0 mi SSW 12.7 mph - N/A   Clear
11:55 PM 60.1 °F - 40.3 °F 48% 29.75 in 10.0 mi SSW 13.8 mph - N/A   Clear